Location: Miles
(41.4492°N, 81.6087°W)
Time: 16:51:13
(UTC+00:00)

A-11 Canister half - Pass Details

Date: 18 September 2024
Orbit: 1515 x 1685 km, 47.2° (Epoch: 14 October)

Event Time Altitude Azimuth Distance (km) Brightness Sun altitude
Rises 01:37:16 0° 270° (W) 4,715 12.6 -23.6°
Reaches altitude 10° 01:40:25 10° 273° (W) 3,715 11.9 -24.2°
Maximum altitude 01:49:40 62° 354° (N) 1,675 9.2 -25.7°
Enters shadow 01:55:10 27° 66° (ENE) 2,591 9.8 -26.6°
